Simultaneous Nadir Overpasses (SNOs) Predictions

Prediction of SNOs between GOES-16 and METOP-B Satellite Orbit:

Table of predicted SNOs for the next 14.0 days since TLE Epoch: 3/23/2024
Index Date Time (GOES-16) GOES-16 Lat,Lon METOP-B Lat,Lon Distance(km) Time Diff (sec)
1 03/24/2024 14:27:10 0.04, -75.22 0.22, -75.97 84.88 80
2 03/25/2024 14:09:11 0.04, -75.23 -0.88, -70.97 484.40 80
3 03/27/2024 02:28:11 -0.04, -75.23 -0.14, -75.58 40.95 80
4 03/29/2024 14:26:24 0.04, -75.27 0.04, -75.17 10.88 80
5 04/01/2024 02:22:05 -0.03, -75.28 0.07, -74.79 55.27 80
6 04/02/2024 14:40:57 0.03, -75.31 0.91, -79.37 462.52 80
7 04/03/2024 14:22:58 0.02, -75.32 -0.21, -74.38 107.41 80
8 04/05/2024 02:41:57 -0.02, -75.33 -0.83, -78.98 416.57 80
9 04/06/2024 02:18:38 -0.02, -75.34 0.30, -74.00 153.80 80
